sat.trackr.live / text

‹ back to catalog

STARLINK-5567

NORAD 55377 · 2023-013AY

PAYLOAD ACTIVE UNKNOWN

§ Identity

Operator
Country
US
Launch date
2023-01-26
Launch site
AFETR
Launch vehicle
Mass (kg)
RCS (m²)

Purposes: comms

External: N2YO · Heavens-Above · Gunter

§ Orbital elements

Epoch: 2026-05-24T16:33:43.953984Z

Period
94.27 min
Inclination
43.0033°
Eccentricity
0.0001819
Mean motion
15.27577187 rev/d
Perigee alt
481.8 km
Apogee alt
484.3 km
Semi-major
6,861.2 km
B*
9.5758e-6
RAAN
249.1376°
Arg perigee
278.2101°
Mean anomaly
81.8544°
Rev number
18,312

§ Raw data

STARLINK-55671 55377U 23013AY  26144.69009206  .00000001  00000+0  95758-5 0  99942 55377  43.0033 249.1376 0001819 278.2101  81.8544 15.27577187183129

JSON: /api/v1/satellites/55377 · /tle

For live sub-satellite position, see the globe view (requires WebGL).

§ Visibility from observer

Set your observer location to see the next 7 days of passes ≥ 10°. The values pass through the URL so the page stays shareable.

No JS? Fill the form by hand. The geolocation button needs JavaScript.